STARLINK-3116, 49146

Orbit data source: Space-Track

STARLINK-3116, 49146 is a payload satellite owned by SpaceX/Seattle (US) in LEO that was launched on Tue, 14 Sep 2021 UTC via an FALCON 9 launch vehicle from the Air Force Western Test Range (AFWTR). Payload-class satellites include a variety of spacecraft equipped with specific instruments for various scientific and technological missions. These include communications satellites like Starlink; space stations such as the ISS; scientific satellites like the Hubble; Earth observation satellites from companies like Planet Labs, Umbra, and HawkEye 360; GPS; miniature CubeSats for education and research; and military/defense satellites.

Loading next visibility...
Identifier
49146, 2021-082S
Orbit
LEO
Country
Flag of USUS
Related business
Manufacturer
SpaceX/Seattle
Mission
Operational Commercial Communications
Bus & Motor
STARLINK, Unknown motor
Mass
297 kg wet, ~275 kg dry
Launch date (UTC)
2021-09-14 (4 years ago)
Launch vehicle
FALCON 9
Launch site
Air Force Western Test Range (AFWTR)
Object type
Payload
Rocket body
Debris
Shape & HBR
Box + 1 Pan, 10.1 m
Radar Cross Section
13.562 m², Large (>1 m²)

Expand to show TLE details & history
Last TLE update: 7 hours ago

TLE from 7 hours ago
0 STARLINK-3116
1 49146U 21082S   26071.94537980 -.00000276  00000-0 -15765-4 0  9993
2 49146  69.9980 267.0473 0002515 266.4544  93.6327 14.97526966248098
Epoch: 2026-03-12T22:41Z
TLE epoch observation values (Epoch: 2026-03-12T22:41:20.814Z)
Latitude
-0.00004°
Longitude
116.12257°
Altitude
577.074 km
Speed
7.572 km/s
True Right ascension
17h 48m 11s
True Declination
0° 00' 00"
Sunlit
Object was in daylight at epoch
Visualization orbit readout
Latitude
Unknown
Longitude
Unknown
Altitude
Unknown
Speed
Unknown
Apparent Right ascension
Unknown
Apparent Declination
Unknown
Sunlit
N/A
Visualization observer readout
Local Sidereal Time
10:06:37
Azimuth
Unknown
Elevation
Unknown
Doppler factor
Unknown
Orbital elements
Apogee altitude
574.238 km
Perigee altitude
570.741 km
Semi-major axis
6,950.627 km
Eccentricity
0.00025
Inclination
69.998°
RAAN
267.0473°
Arg. of periapsis
266.4544°
True anomaly
93.66146°
Mean anomaly
93.6327°
Eccentric anomaly
93.64708°
Mean motion
3.74548 °/min
Orbital period
96.12 mins
BSTAR
-0.000015765
Loading maneuver chart data...
Computing Atmospheric mass density...

Documentation

Showing up to 5 results
|